Location: Newark
(58.8333°N, 23.5833°E)
Time: 01:54:16
(UTC+00:00)

Tiros 1 despin weight - Pass Details

Date: 25 November 2019
Orbit: 594 x 642 km, 48.2° (Epoch: 08 December)

Event Time Altitude Azimuth Distance (km) Brightness Sun altitude
Rises 12:34:12 0° 250° (WSW) 2,829 ? 5.2°
Reaches altitude 10° 12:36:56 10° 234° (SW) 1,929 ? 5.0°
Maximum altitude 12:40:10 20° 186° (S) 1,386 ? 4.8°
Drops below altitude 10° 12:43:26 10° 139° (SE) 1,938 ? 4.6°
Sets 12:46:11 0° 123° (ESE) 2,848 ? 4.4°
